Aeroporto :
LOGIN :

Iscrizione | Disclaimer

   EN    FR    IT 

 










Sommario :    VFR   VFR Marginale   IFR   IFR Intensivo   IFR Molto Intensivo
Visibilità : 
Base nubi : 
>= 8 km
>= 3000ft
5 / 8 km
1000 / 3000 ft
1500m / 5 km
500 / 1000 ft
800 / 1500m
200 / 500 ft
< 800m
< 200 ft
Simboli :   Temporali  Nebbia  Neve Forte  Precipitazioni Forti  Vento > 20 kt
SIGMETs :   Varie  Temporali  Ghiacco  Turbolenza  Onda orograficha  Ceneri Vulcaniche






- Altitudine del aeroporto : 230 ft


ETHB - Buckeburg Army

ULTIMO METAR :
  • 122120Z 19010KT 9999 FEW040 03/01 Q1001 BLU+BLU+

METARs OBSOLETI :
  • 122020Z 18009KT 9999 FEW028 03/02 Q1001 BLU+BLU+
  • 121920Z 18007KT 9999 FEW028 04/02 Q1001 BLU+BLU

TAF TAF ETHB
Valido dal 12 a 18 ore il 13 a 03 ore UTC


121723Z 1218/1303 19010KT 9999 NSW FEW020 BKN035
PROB30 1218/1220 21012G22KT 5000 -SHRA BKN020TCU



MetMap, La meteo Aeronautica in un colpo d'occhio ! - Copyright ORBIFLY Dicembre 2007 - Disclaimer

ORBIFLY MET'MAP TEAM :

Programmazione e sviluppo : Alexandra Zaïnal
Concezione e sviluppo : Baudouin d'Aumeries
Co-Programmazione e sviluppo : Marc-Olivier Méhu
Supporto tecnico e logistico : Manuel Goepfert
Aiuto per la traduzione : Arnaldo La Scala

Contatto : metmap@orbifly.com




FONTI E CREDITI :

   NOAA